SKYNET 5D

Last updated on Thu Nov 21 2024 00:02:42 GMT+0000 (Coordinated Universal Time)

1 39034U 12075A 24325.21160664 .00000100 00000+0 00000+0 0 9995 2 39034 0.0704 356.6585 0004103 242.6483 309.3463 1.00270872 43403
UTC large
Height (km)
Speed (km/s)
/
Latitude / Longitude
Inclination (degrees)
Orbital Period (minutes)
Azimuth
Elevation
Range (km)
Doppler Factor

Next 0 passes for location: London (51.5072 / 0.1276)

Sorry there are no passes over London.